User: anonymous   Login
Location: Unspecified
(0.0000°N, 0.0000°E)
Time: 10:03:33
(UTC+00:00)
Language:

FORMOSAT7-4/COSMIC2-4 - Orbit

View from above orbital plane
View from above orbital plane
View from above satellite
View from above satellite

Ground track
Ground track

The orbit is defined by the following mean orbital elements,

1 44350U          26145.39818704 +.00000000 +00000-0 +17254-3 0 00009
2 44350  23.9978 248.1263 0000746 291.5263  68.5158 14.96391735    08
Epoch (UTC): 25 May 2026 09:33:23
Eccentricity: 0.0000746
inclination: 23.9978°
perigee height: 578 km
apogee height: 579 km
right ascension of ascending node: 248.1263°
argument of perigee: 291.5263°
revolutions per day: 14.96391735
mean anomaly at epoch: 68.5158°

The dashed part of the orbit path shows where the satellite is in the earth's shadow,  

DLR